New Orleans Lakefront, LA

5:36 AM CDT on October 20, 2017 (GMT -0500)
Lakefront

Weather History for KNEW - April, 2014

Change the Weather History Date:

Tuesday, April 29, 2014

  Actual Average Record
Temperature  
Mean Temperature 78 °F 73 °F  
Max Temperature 84 °F 81 °F 90 °F (2002)
Min Temperature 71 °F 64 °F 45 °F (1973)
Degree Days  
Heating Degree Days 0 0  
Month to date heating degree days 41 32  
Since 1 July heating degree days 1581 1277  
Cooling Degree Days 13 8  
Month to date cooling degree days 154 150  
Year to date cooling degree days 199 250  
Growing Degree Days 26 (Base 50)    
Moisture  
Dew Point 73 °F    
Average Humidity 85    
Maximum Humidity 100    
Minimum Humidity 70    
Precipitation  
Precipitation 0.12 in 0.16 in 1.86 in (1991)
Month to date precipitation 2.31 4.45  
Year to date precipitation 16.59 19.45  
Snow  
Snow 0.00 in - - ()
Month to date snowfall 0.0  
Since 1 July snowfall T  
Snow Depth 0.00 in    
Sea Level Pressure  
Sea Level Pressure 29.70 in    
Wind  
Wind Speed 11 mph (SSW)    
Max Wind Speed 22 mph    
Max Gust Speed 26 mph    
Visibility 6 miles    
Events Rain , Thunderstorm    
T = Trace of Precipitation, MM = Missing Value Source: NWS Daily Summary

Daily Weather History Graph

Daily Weather History Graph

Search for Another Location

Airport or City:

Trip Planner

Search our weather history database for the weather conditions in past years. The results will help you decide how hot, cold, wet, or windy it might be!

Date:

Astronomy

Apr. 29, 2014 Rise Set
Actual Time 6:19 AM CDT 7:36 PM CDT
Civil Twilight 5:53 AM CDT 8:01 PM CDT
Nautical Twilight 5:23 AM CDT 8:31 PM CDT
Astronomical Twilight 4:52 AM CDT 9:02 PM CDT
Moon 6:36 AM CDT (4/29) 8:15 PM CDT (4/29)
Length of Visible Light 14h 07m
Length of Day
13h 17m
New Moon, 0% of the Moon is Illuminated
Apr 29
New Moon
May 6
First Quarter
May 14
Full
May 21
Last Quarter
May 28
New

Hourly Weather History & Observations

Time (CDT) Temp. Heat Index Dew Point Humidity Pressure Visibility Wind Dir Wind Speed Gust Speed Precip Events Conditions
12:53 AM 77.0 °F - 73.0 °F 88% 29.66 in 7.0 mi SW 21.9 mph 28.8 mph N/A   Overcast
1:53 AM 75.9 °F - 73.9 °F 94% 29.66 in 6.0 mi WSW 18.4 mph - N/A   Overcast
2:53 AM 75.9 °F - 73.9 °F 94% 29.66 in 7.0 mi West 15.0 mph - N/A   Overcast
3:00 AM 75.9 °F - 73.9 °F 94% 29.67 in 6.0 mi West 15.0 mph - N/A   Overcast
3:14 AM 75.9 °F - 73.9 °F 94% 29.68 in 6.0 mi West 17.3 mph - N/A   Overcast
3:53 AM 75.9 °F - 73.9 °F 94% 29.66 in 5.0 mi WNW 9.2 mph - N/A   Overcast
4:07 AM 75.9 °F - 73.9 °F 94% 29.67 in 5.0 mi WNW 8.1 mph - N/A   Overcast
4:24 AM 75.0 °F - 73.9 °F 96% 29.68 in 4.0 mi NW 6.9 mph - N/A   Overcast
4:45 AM 75.9 °F - 73.9 °F 94% 29.69 in 5.0 mi NW 5.8 mph - N/A   Overcast
4:53 AM 75.9 °F - 73.9 °F 94% 29.67 in 5.0 mi NNW 4.6 mph - N/A   Overcast
5:33 AM 75.9 °F - 73.9 °F 94% 29.69 in 4.0 mi North 4.6 mph - N/A   Overcast
5:45 AM 75.9 °F - 73.9 °F 94% 29.70 in 4.0 mi North 4.6 mph - N/A Thunderstorm Overcast
5:53 AM 75.0 °F - 73.0 °F 94% 29.68 in 4.0 mi NNE 8.1 mph - N/A Thunderstorm Overcast
6:05 AM 75.0 °F - 73.9 °F 96% 29.70 in 4.0 mi NE 10.4 mph - N/A   Overcast
6:24 AM 75.0 °F - 72.0 °F 90% 29.71 in 5.0 mi East 17.3 mph - N/A   Overcast
6:33 AM 72.0 °F - 68.0 °F 87% 29.72 in 9.0 mi East 19.6 mph - N/A   Overcast
6:53 AM 71.1 °F - 68.0 °F 90% 29.71 in 9.0 mi East 18.4 mph - N/A   Overcast
7:53 AM 71.1 °F - 66.0 °F 84% 29.70 in 8.0 mi ESE 19.6 mph 24.2 mph N/A   Overcast
8:53 AM 71.1 °F - 64.9 °F 81% 29.72 in 9.0 mi SE 16.1 mph 24.2 mph N/A   Overcast
9:53 AM 73.0 °F - 66.9 °F 81% 29.72 in 10.0 mi SSE 11.5 mph - 0.00 in   Overcast
10:53 AM 73.9 °F - 70.0 °F 87% 29.73 in 7.0 mi SSE 11.5 mph - 0.00 in Rain Light Rain
11:00 AM 75.0 °F - 71.1 °F 87% 29.74 in 8.0 mi SSE 13.8 mph - 0.00 in   Overcast
11:22 AM 75.9 °F - 72.0 °F 87% 29.74 in 9.0 mi SSE 13.8 mph - 0.00 in   Overcast
11:53 AM 78.1 °F - 72.0 °F 81% 29.72 in 9.0 mi SSE 15.0 mph - 0.00 in   Overcast
12:40 PM 75.9 °F - 72.0 °F 87% 29.73 in 5.0 mi SSE 16.1 mph - N/A   Overcast
12:53 PM 77.0 °F - 72.0 °F 84% 29.70 in 5.0 mi SSE 13.8 mph - N/A   Haze
1:15 PM 78.1 °F - 73.0 °F 84% 29.72 in 6.0 mi SSE 16.1 mph - N/A   Haze
1:28 PM 75.9 °F - 73.0 °F 91% 29.71 in 2.5 mi SSE 18.4 mph - 0.06 in Rain Rain
1:32 PM 75.0 °F - 73.0 °F 94% 29.71 in 4.0 mi South 10.4 mph - 0.11 in Rain Heavy Rain
1:37 PM 75.0 °F - 73.0 °F 94% 29.71 in 4.0 mi SSE 9.2 mph - 0.12 in Rain , Thunderstorm Light Thunderstorms and Rain
1:53 PM 75.9 °F - 73.9 °F 94% 29.70 in 4.0 mi South 8.1 mph - 0.12 in Rain , Thunderstorm Light Thunderstorms and Rain
2:07 PM 78.1 °F - 73.9 °F 87% 29.71 in 5.0 mi South 8.1 mph - 0.00 in Thunderstorm Overcast
2:15 PM 79.0 °F - 75.0 °F 88% 29.70 in 5.0 mi SSW 6.9 mph - 0.00 in   Overcast
2:49 PM 80.6 °F 86.2 °F 75.2 °F 84% 29.70 in 8.0 mi SW 11.5 mph - 0.00 in   Overcast
2:53 PM 81.0 °F 86.7 °F 75.0 °F 82% 29.68 in 8.0 mi SW 13.8 mph - 0.00 in   Overcast
3:24 PM 81.0 °F 85.8 °F 73.0 °F 77% 29.69 in 8.0 mi SSW 15.0 mph - N/A   Overcast
3:53 PM 82.4 °F 88.2 °F 73.4 °F 74% 29.68 in 8.0 mi SSW 16.1 mph - N/A   Mostly Cloudy
4:53 PM 80.6 °F 85.4 °F 73.4 °F 79% 29.68 in 8.0 mi SW 15.0 mph - N/A   Partly Cloudy
5:53 PM 81.0 °F 86.2 °F 73.9 °F 79% 29.66 in 8.0 mi SSW 15.0 mph - N/A   Partly Cloudy
6:53 PM 80.1 °F 84.5 °F 73.9 °F 81% 29.68 in 8.0 mi SSW 15.0 mph - N/A   Partly Cloudy
7:42 PM 79.0 °F - 73.9 °F 84% 29.70 in 6.0 mi SSW 15.0 mph - N/A   Haze
7:53 PM 79.0 °F - 73.9 °F 84% 29.69 in 7.0 mi SSW 12.7 mph - N/A   Overcast
8:53 PM 78.1 °F - 73.9 °F 87% 29.71 in 8.0 mi SW 11.5 mph - N/A   Overcast
9:53 PM 78.1 °F - 73.9 °F 87% 29.72 in 7.0 mi SW 12.7 mph - N/A   Overcast
10:53 PM 77.0 °F - 73.0 °F 88% 29.75 in 6.0 mi West 13.8 mph - N/A   Overcast
11:05 PM 77.0 °F - 73.0 °F 88% 29.76 in 6.0 mi West 12.7 mph - N/A   Overcast
11:20 PM 77.0 °F - 73.0 °F 88% 29.76 in 6.0 mi West 15.0 mph - N/A   Mostly Cloudy
11:53 PM 75.9 °F - 73.0 °F 91% 29.75 in 5.0 mi West 15.0 mph - N/A   Overcast